Overview Statistics Trail Chart Weather Telemetry Raw packets
 

This is the latest recevied weather packets stored in our database for station/object W5GMO. If no packets are shown the sender has not sent any weather packets the latest 10 day(s).

<< 107 108 109 110 111 112 113 >>
Time Temp. Humidity Pressure Rain* Wind** Luminosity Snow
1787828778 23.89° C 1% 1015.6 hPa 0 mm - 45 W/m² -
1787828475 23.89° C 1% 1016 hPa 0 mm - 37 W/m² -
1787828174 23.89° C 1% 1015.9 hPa 0 mm - 29 W/m² -
1787827872 23.89° C 1% 1015.6 hPa 0 mm - 19 W/m² -
1787827569 23.89° C 1% 1015.8 hPa 0 mm - 11 W/m² -
1787827268 23.89° C 1% 1015.6 hPa 0 mm - 7 W/m² -
1787826967 23.89° C 1% 1015.8 hPa 0 mm - 4 W/m² -
1787826662 23.89° C 1% 1015.5 hPa 0 mm - 2 W/m² -
1787826358 23.89° C 1% 1015.6 hPa 0 mm - 1 W/m² -
1787826055 23.89° C 1% 1015.5 hPa 0 mm - 1 W/m² -
1787825752 23.89° C 1% 1015.6 hPa 0 mm - 0 W/m² -
1787825452 23.89° C 1% 1015.4 hPa 0 mm - 0 W/m² -
1787825151 23.89° C 1% 1015.6 hPa 0 mm - 0 W/m² -
1787824849 23.89° C 1% 1015.6 hPa 0 mm - 0 W/m² -
1787824543 23.89° C 1% 1015.3 hPa 0 mm - 0 W/m² -
1787824242 23.89° C 1% 1015.5 hPa 0 mm - 0 W/m² -
1787823939 23.89° C 1% 1015.9 hPa 0 mm - 0 W/m² -
1787823633 23.89° C 1% 1015.6 hPa 0 mm - 0 W/m² -
1787823329 23.89° C 1% 1015.5 hPa 0 mm - 0 W/m² -
1787823027 23.89° C 1% 1015.6 hPa 0 mm - 0 W/m² -
1787822722 23.89° C 1% 1015.6 hPa 0 mm - 0 W/m² -
1787822421 23.89° C 1% 1015.6 hPa 0 mm - 0 W/m² -
1787822117 23.89° C 1% 1015.5 hPa 0 mm - 0 W/m² -
1787821815 23.89° C 1% 1015.8 hPa 0 mm - 0 W/m² -
1787821511 23.89° C 1% 1016 hPa 0 mm - 0 W/m² -

* Rain latest hour (hover to see other rain measurements)
** Current wind speed in m/s (hover to see current wind gust speed)